If you wish to contribute or participate in the discussions about articles you are invited to join SKYbrary as a registered user

 Actions

Ancona Airport

From SKYbrary Wiki

LIPY
Airport
ICAO: LIPY – IATA: AOI
Summary
Name Ancona Airport
Region Europe
Territory Italy IT.gif
Location Falconara, Marche
Serving Ancona
Elevation 14.935 m
49 ft
49 ft14.935 m
Coordinates 43° 37' 0.00" N, 13° 21' 36.00" E
Runways
Designator Length Width Surface ROPS
4/22 2962 m9,717.848 ft
45 m147.638 ft
ASP yes/yes


METAR
Observation LIPY 230350Z 18002KT 6000 R22/0600VP1500D NSC 13/13 Q1020
Station Falconara
Date/Time 23 October 2019 03:50:00
Wind direction 180°
Wind speed 02 kts
Lowest cloud amount nil significant cloud
Temperature 13°C
Dew point 13°C
Humidity 100%
QNH 1020 hPa
Weather condition n/a

International airport serving Ancona, Italy.

Climatology

Humid “subtropical” climate (Köppen climate classification Cfa) - characterized by hot, humid summers and cool winters. Significant amounts of precipitation occur in all seasons in most areas. Winter rainfall (and sometimes snowfall) is associated with large storms that the westerlies steer from west to east. Most summer rainfall occurs during thunderstorms.

Maps

Terrain

Loading map...

Airport Layout

Loading map...


Accidents & Serious Incidents at or in vicinity of LIPY

None on SKYbrary